DW5212 Weather Reports


time (UTC)temp
F
wind
direction
speed
knots
gust
knots
rain 1hr
in
rain 24hr
in
rain mn
in
humidity
%
barometer
mb
20260902102003 76 39 0.0 0.0 0.00 0.00 0.00 92 1016.0
20260902101503 76 39 0.0 0.0 0.00 0.00 0.00 92 1016.0
20260902101003 76 39 0.0 0.0 0.00 0.00 0.00 92 1016.0
20260902100503 76 39 0.0 0.0 0.00 0.00 0.00 92 1015.9
20260902100004 76 39 0.0 0.0 0.00 0.00 0.00 92 1015.9
20260902095500 76 82 0.0 0.0 0.00 0.00 0.00 92 1015.9
20260902095003 76 82 0.0 0.0 0.00 0.00 0.00 92 1015.8
20260902094504 76 82 0.0 0.0 0.00 0.00 0.00 92 1015.7
20260902094004 76 82 0.0 0.0 0.00 0.00 0.00 91 1015.6
20260902093503 76 82 0.0 0.0 0.00 0.00 0.00 91 1015.7
20260902093004 76 82 0.0 0.0 0.00 0.00 0.00 91 1015.6
20260902092503 77 82 0.0 0.0 0.00 0.00 0.00 91 1015.7
20260902092003 77 82 0.0 0.0 0.00 0.00 0.00 91 1015.7
20260902091503 77 82 0.0 0.0 0.00 0.00 0.00 91 1015.6
20260902091004 77 82 0.0 0.0 0.00 0.00 0.00 91 1015.5
20260902090503 77 82 0.0 0.0 0.00 0.00 0.00 91 1015.5
20260902090005 77 82 0.0 0.0 0.00 0.00 0.00 91 1015.6
20260902085503 77 82 0.0 1.7 0.00 0.00 0.00 91 1015.6
20260902085004 77 161 0.0 1.7 0.00 0.00 0.00 91 1015.7
20260902084503 77 169 0.0 2.6 0.00 0.00 0.00 91 1015.7
20260902084004 77 201 0.0 1.7 0.00 0.00 0.00 91 1015.5
20260902083503 77 201 0.0 2.6 0.00 0.00 0.00 91 1015.5
20260902082004 77 81 0.0 0.9 0.00 0.00 0.00 91 1015.6
20260902081503 77 110 0.0 0.9 0.00 0.00 0.00 90 1015.6
20260902081004 77 124 0.0 0.0 0.00 0.00 0.00 90 1015.6
20260902080005 77 124 0.0 0.0 0.00 0.00 0.00 90 1015.6
20260902075503 77 125 0.0 1.7 0.00 0.00 0.00 90 1015.7
20260902075003 77 125 0.0 1.7 0.00 0.00 0.00 90 1015.7
20260902074503 77 183 0.0 1.7 0.00 0.00 0.00 90 1015.6
20260902074003 77 137 0.0 3.5 0.00 0.00 0.00 90 1015.7
20260902073004 77 223 0.9 2.6 0.00 0.00 0.00 90 1015.8
20260902072501 77 119 0.9 2.6 0.00 0.00 0.00 89 1015.7
20260902072003 77 87 0.9 2.6 0.00 0.00 0.00 89 1015.9
20260902071504 77 115 0.0 1.7 0.00 0.00 0.00 89 1015.9
20260902070007 77 98 0.0 0.9 0.00 0.00 0.00 88 1016.1
20260902065503 77 98 0.0 2.6 0.00 0.00 0.00 88 1016.1
20260902065004 78 108 0.0 2.6 0.00 0.00 0.00 88 1016.1
20260902064503 78 145 0.0 1.7 0.00 0.00 0.00 88 1016.0
20260902064004 78 146 0.9 2.6 0.00 0.00 0.00 88 1016.1
20260902063504 78 90 0.9 4.3 0.00 0.00 0.00 88 1016.1
20260902063004 78 130 0.9 4.3 0.00 0.00 0.00 87 1016.1
20260902062503 78 90 0.0 3.5 0.00 0.00 0.00 87 1016.1
20260902062003 78 137 0.0 0.0 0.00 0.00 0.00 87 1016.1
20260902061003 78 75 0.0 0.0 0.00 0.00 0.00 87 1016.1
20260902060006 78 103 0.0 0.0 0.00 0.00 0.00 87 1016.1
20260902055504 78 88 0.9 3.5 0.00 0.00 0.00 86 1016.2
20260902055004 78 126 0.9 3.5 0.00 0.00 0.00 86 1016.2
20260902054504 78 200 0.0 1.7 0.00 0.00 0.00 86 1016.1
20260902054005 79 206 0.0 1.7 0.00 0.00 0.00 86 1016.1
20260902053505 79 207 0.9 3.5 0.00 0.00 0.00 85 1016.2
20260902052504 79 182 0.9 6.1 0.00 0.00 0.00 85 1016.0
20260902051504 79 49 0.9 6.1 0.00 0.00 0.00 85 1016.0
20260902051005 79 149 0.9 4.3 0.00 0.00 0.00 85 1015.9
20260902050009 79 24 0.9 2.6 0.00 0.00 0.00 85 1016.0
20260902045503 79 63 0.9 4.3 0.00 0.00 0.00 84 1016.0
20260902045004 79 157 0.9 4.3 0.00 0.00 0.00 84 1016.0
20260902044504 79 142 0.9 7.0 0.00 0.00 0.00 84 1016.0
20260902043504 79 113 0.9 2.6 0.00 0.00 0.00 84 1016.1
20260902043006 79 136 0.0 1.7 0.00 0.00 0.00 84 1016.0
20260902042504 79 113 0.0 2.6 0.00 0.00 0.00 84 1016.0
20260902042004 79 117 0.0 2.6 0.00 0.00 0.00 84 1016.0
20260902041504 79 101 0.0 0.9 0.00 0.00 0.00 83 1015.8
20260902041006 79 101 0.0 0.9 0.00 0.00 0.00 83 1015.8
20260902040504 79 101 0.0 2.6 0.00 0.00 0.00 83 1016.0
20260902040006 79 101 0.9 2.6 0.00 0.00 0.00 83 1015.8
20260902035504 79 88 0.0 2.6 0.00 0.00 0.00 83 1015.7
20260902035005 79 146 0.0 2.6 0.00 0.00 0.00 83 1015.6
20260902034004 80 95 0.9 3.5 0.00 0.00 0.00 82 1015.7
20260902033504 80 113 0.9 2.6 0.00 0.00 0.00 82 1015.6
20260902033004 80 130 0.9 2.6 0.00 0.00 0.00 82 1015.7
20260902032504 80 125 0.9 1.7 0.00 0.00 0.00 82 1015.6
20260902032004 80 137 0.9 2.6 0.00 0.00 0.00 82 1015.7
20260902031505 80 72 0.9 2.6 0.00 0.00 0.00 82 1015.7
20260902031003 80 127 0.9 5.2 0.00 0.00 0.00 82 1015.7
20260902030505 80 161 0.9 5.2 0.00 0.00 0.00 82 1015.7
20260902025004 80 123 0.0 2.6 0.00 0.00 0.00 81 1015.6
20260902024505 80 203 0.0 0.9 0.00 0.00 0.00 82 1015.6
20260902024004 80 108 0.0 1.7 0.00 0.00 0.00 81 1015.6
20260902023506 80 101 0.0 0.9 0.00 0.00 0.00 81 1015.6
20260902023005 80 108 0.0 0.0 0.00 0.00 0.00 81 1015.6
20260902022505 80 127 0.0 0.0 0.00 0.00 0.00 81 1015.6
20260902022004 80 127 0.0 0.0 0.00 0.00 0.00 81 1015.5
20260902021503 80 95 0.0 0.9 0.00 0.00 0.00 80 1015.4
20260902021004 80 95 0.0 1.7 0.00 0.00 0.00 80 1015.1
20260902020503 80 95 0.0 1.7 0.00 0.00 0.00 80 1014.8
20260902020004 80 105 0.0 1.7 0.00 0.00 0.00 79 1015.0
20260902015503 80 105 0.0 1.7 0.00 0.00 0.00 79 1014.9
20260902015003 80 63 0.0 0.0 0.00 0.00 0.00 78 1015.0
20260902014503 81 63 0.0 0.0 0.00 0.00 0.00 78 1015.2
20260902014004 81 63 0.0 0.0 0.00 0.00 0.00 78 1015.2
20260902013503 81 63 0.0 0.0 0.00 0.00 0.00 77 1015.0
20260902013004 81 63 0.0 0.0 0.00 0.00 0.00 77 1014.9
20260902011504 82 63 0.0 0.0 0.00 0.00 0.00 76 1015.1
20260902011003 82 63 0.0 0.0 0.00 0.00 0.00 75 1015.2
20260902010503 82 63 0.0 1.7 0.00 0.00 0.00 74 1015.1
20260902005504 83 74 0.9 2.6 0.00 0.00 0.00 73 1015.2
20260902005004 83 74 0.9 5.2 0.00 0.00 0.00 73 1015.2
20260902004503 83 188 0.9 2.6 0.00 0.00 0.00 73 1015.2
20260902004004 83 188 0.9 6.1 0.00 0.00 0.00 72 1015.2
20260902003503 83 148 1.7 6.1 0.00 0.00 0.00 72 1015.2
20260902003005 83 145 1.7 5.2 0.00 0.00 0.00 72 1015.3
20260902002502 84 108 0.9 3.5 0.00 0.00 0.00 72 1015.2
20260902002004 84 86 0.0 1.7 0.00 0.00 0.00 72 1015.2
20260902001503 84 54 0.9 2.6 0.00 0.00 0.00 72 1015.2
20260902001004 84 137 0.0 1.7 0.00 0.00 0.00 72 1015.1
20260902000503 84 70 0.0 1.7 0.00 0.00 0.00 71 1015.2
20260902000006 85 219 0.0 0.9 0.00 0.00 0.00 71 1015.3
20260901235507 85 219 0.9 3.5 0.00 0.00 0.00 70 1015.2
20260901235005 85 218 1.7 3.5 0.00 0.00 0.00 70 1015.2
20260901234504 85 137 0.9 3.5 0.00 0.00 0.00 70 1015.1
20260901234003 85 265 0.9 1.7 0.00 0.00 0.00 70 1015.1
20260901233504 85 102 0.9 5.2 0.00 0.00 0.00 71 1014.9
20260901233004 85 49 0.9 5.2 0.00 0.00 0.00 70 1015.0
20260901232504 85 56 0.0 1.7 0.00 0.00 0.00 71 1014.9
20260901231503 85 117 0.9 3.5 0.00 0.00 0.00 70 1014.9
20260901231004 86 100 0.9 3.5 0.00 0.00 0.00 70 1014.9
20260901230504 86 140 0.9 5.2 0.00 0.00 0.00 69 1014.8
20260901225504 86 94 0.0 3.5 0.00 0.00 0.00 70 1014.8
20260901225005 86 153 0.9 1.7 0.00 0.00 0.00 70 1014.7
20260901224504 86 153 0.9 2.6 0.00 0.00 0.00 70 1014.8
20260901223504 86 157 0.9 5.2 0.00 0.00 0.00 70 1014.8
20260901223007 86 207 1.7 5.2 0.00 0.00 0.00 70 1014.8
20260901222504 86 109 1.7 5.2 0.00 0.00 0.00 70 1014.8
20260901222004 85 264 0.9 4.3 0.00 0.00 0.00 69 1014.9
20260901221005 86 180 1.7 5.2 0.00 0.00 0.00 69 1014.8
20260901220503 86 188 1.7 5.2 0.00 0.00 0.00 69 1015.0
20260901220006 86 15 1.7 7.8 0.00 0.00 0.00 69 1014.9
20260901215004 86 133 1.7 7.0 0.00 0.00 0.00 69 1015.2
20260901214503 86 205 1.7 6.1 0.00 0.00 0.00 69 1015.2
20260901214003 86 119 0.9 6.1 0.00 0.00 0.00 69 1015.2
20260901213503 86 281 0.9 4.3 0.00 0.00 0.00 71 1015.2
20260901213004 86 294 0.9 4.3 0.00 0.00 0.00 70 1015.3
20260901212503 86 187 1.7 4.3 0.00 0.00 0.00 70 1015.2
20260901210504 86 127 1.7 4.3 0.00 0.00 0.00 70 1015.1
20260901210006 86 207 2.6 8.7 0.00 0.00 0.00 70 1015.2
20260901205506 86 177 2.6 7.0 0.00 0.00 0.00 70 1015.2
20260901204504 86 202 1.7 4.3 0.00 0.00 0.00 71 1015.1
20260901204004 86 61 1.7 6.1 0.00 0.00 0.00 70 1015.1
20260901203503 86 167 2.6 7.8 0.00 0.00 0.00 69 1015.2
20260901203004 87 193 2.6 7.8 0.00 0.00 0.00 68 1015.3
20260901202503 88 177 2.6 8.7 0.00 0.00 0.00 66 1015.3
20260901202004 89 202 2.6 11.3 0.00 0.00 0.00 63 1015.4
20260901201004 92 172 1.7 7.8 0.00 0.00 0.00 58 1015.4
20260901200503 93 198 2.6 9.6 0.00 0.00 0.00 55 1015.4
20260901200003 94 71 2.6 7.8 0.00 0.00 0.00 53 1015.4
20260901195503 95 111 2.6 9.6 0.00 0.00 0.00 52 1015.3
20260901195004 96 159 2.6 9.6 0.00 0.00 0.00 51 1015.3
20260901194503 97 140 1.7 5.2 0.00 0.00 0.00 50 1015.4
20260901194004 97 196 2.6 6.1 0.00 0.00 0.00 48 1015.4
20260901193504 97 83 3.5 8.7 0.00 0.00 0.00 49 1015.4
20260901193004 97 109 2.6 9.6 0.00 0.00 0.00 48 1015.7
20260901192503 97 117 2.6 7.8 0.00 0.00 0.00 47 1015.7
20260901191504 97 155 3.5 8.7 0.00 0.00 0.00 48 1015.5
20260901191004 97 219 2.6 13.0 0.00 0.00 0.00 47 1015.6
20260901190503 97 94 2.6 6.1 0.00 0.00 0.00 50 1015.6
20260901190004 97 95 2.6 6.1 0.00 0.00 0.00 50 1015.6
20260901185505 97 148 2.6 7.8 0.00 0.00 0.00 49 1015.6
20260901185004 97 202 2.6 10.4 0.00 0.00 0.00 50 1015.8
20260901184503 97 310 2.6 10.4 0.00 0.00 0.00 51 1016.0
20260901184004 96 121 2.6 6.1 0.00 0.00 0.00 51 1016.1
20260901183503 96 185 2.6 6.1 0.00 0.00 0.00 52 1016.1
20260901183004 95 141 2.6 6.1 0.00 0.00 0.00 52 1016.1
20260901182004 95 167 1.7 6.1 0.00 0.00 0.00 53 1016.4
20260901181504 95 355 1.7 3.5 0.00 0.00 0.00 55 1016.5
20260901181004 94 92 1.7 3.5 0.00 0.00 0.00 54 1016.3
20260901180503 94 95 1.7 3.5 0.00 0.00 0.00 56 1016.3
20260901180006 95 128 1.7 3.5 0.00 0.00 0.00 55 1016.4
20260901175503 95 92 1.7 6.1 0.00 0.00 0.00 56 1016.3
20260901175004 94 150 1.7 6.1 0.00 0.00 0.00 55 1016.4
20260901174503 94 76 1.7 6.1 0.00 0.00 0.00 57 1016.5
20260901174005 94 92 1.7 6.1 0.00 0.00 0.00 55 1016.5
20260901173503 94 184 1.7 2.6 0.00 0.00 0.00 57 1016.5
20260901172503 94 9 1.7 5.2 0.00 0.00 0.00 57 1016.4
20260901172004 94 88 1.7 3.5 0.00 0.00 0.00 57 1016.6
20260901171004 93 90 1.7 3.5 0.00 0.00 0.00 57 1016.6
20260901170503 93 24 1.7 3.5 0.00 0.00 0.00 58 1016.7
20260901170005 93 27 1.7 4.3 0.00 0.00 0.00 58 1016.7
20260901165503 93 76 1.7 6.1 0.00 0.00 0.00 58 1016.8
20260901165004 93 14 1.7 6.1 0.00 0.00 0.00 58 1016.9
20260901164503 93 71 1.7 4.3 0.00 0.00 0.00 60 1017.0
20260901164004 93 88 1.7 5.2 0.00 0.00 0.00 60 1017.0
20260901163504 93 213 1.7 7.8 0.00 0.00 0.00 60 1017.1
20260901163005 93 137 1.7 7.8 0.00 0.00 0.00 61 1017.2
20260901162502 92 121 1.7 5.2 0.00 0.00 0.00 62 1017.2
20260901162004 92 28 1.7 7.0 0.00 0.00 0.00 62 1017.3
20260901161504 92 63 1.7 7.0 0.00 0.00 0.00 63 1017.2
20260901161004 92 355 1.7 6.1 0.00 0.00 0.00 64 1017.4
20260901160504 92 126 1.7 6.1 0.00 0.00 0.00 65 1017.4
20260901160004 91 130 1.7 4.3 0.00 0.00 0.00 67 1017.4
20260901155005 91 189 1.7 5.2 0.00 0.00 0.00 68 1017.4
20260901154504 90 16 1.7 4.3 0.00 0.00 0.00 69 1017.6
20260901153503 89 90 0.9 5.2 0.00 0.00 0.00 72 1017.5
20260901153004 88 156 1.7 3.5 0.00 0.00 0.00 73 1017.5
20260901152503 87 34 1.7 3.5 0.00 0.00 0.00 73 1017.4
20260901152004 87 66 0.9 2.6 0.00 0.00 0.00 74 1017.4
20260901151003 87 78 0.9 2.6 0.00 0.00 0.00 76 1017.4
20260901150503 87 96 0.9 3.5 0.00 0.00 0.00 76 1017.4
20260901145504 86 35 1.7 4.3 0.00 0.00 0.00 78 1017.4
20260901144504 85 159 0.9 3.5 0.00 0.00 0.00 81 1017.6
20260901144004 84 134 0.9 2.6 0.00 0.00 0.00 82 1017.7
20260901143503 83 78 0.0 1.7 0.00 0.00 0.00 84 1017.7
20260901143004 83 45 0.9 2.6 0.00 0.00 0.00 85 1017.6
20260901142004 81 61 0.9 4.3 0.00 0.00 0.00 88 1017.7
20260901141004 79 28 0.9 2.6 0.00 0.00 0.00 90 1017.8
20260901140503 79 104 0.9 2.6 0.00 0.00 0.00 90 1017.9
20260901140004 79 155 0.9 3.5 0.00 0.00 0.00 91 1017.9
20260901135004 78 40 0.0 1.7 0.00 0.00 0.00 91 1017.9
20260901134003 77 84 0.0 0.0 0.00 0.00 0.00 92 1017.8
20260901133503 77 84 0.0 0.0 0.00 0.00 0.00 93 1017.8
20260901133004 77 141 0.0 0.0 0.00 0.00 0.00 93 1017.7
20260901132503 76 141 0.0 0.0 0.00 0.00 0.00 94 1017.6
20260901131503 76 76 0.0 0.0 0.00 0.00 0.00 94 1017.5
20260901131003 75 76 0.0 0.0 0.00 0.00 0.00 94 1017.6
20260901130502 75 85 0.0 0.0 0.00 0.00 0.00 95 1017.5
20260901130006 74 86 0.0 0.0 0.00 0.00 0.00 95 1017.4
20260901125503 74 88 0.0 0.0 0.00 0.00 0.00 95 1017.4
20260901125003 74 89 0.0 0.0 0.00 0.00 0.00 94 1017.3
20260901124504 74 88 0.0 0.0 0.00 0.00 0.00 94 1017.2
20260901124004 73 92 0.0 0.0 0.00 0.00 0.00 94 1017.2
20260901123503 73 91 0.0 0.0 0.00 0.00 0.00 94 1017.1
20260901122504 73 92 0.0 0.0 0.00 0.00 0.00 94 1016.9
20260901122003 73 92 0.0 0.0 0.00 0.00 0.00 94 1016.9
20260901121503 73 92 0.0 0.0 0.00 0.00 0.00 94 1016.8
20260901121004 73 92 0.0 0.0 0.00 0.00 0.00 93 1016.7
20260901120503 73 92 0.0 0.0 0.00 0.00 0.00 93 1016.8
20260901120005 73 92 0.0 0.0 0.00 0.00 0.00 93 1016.5
20260901115500 73 92 0.0 0.0 0.00 0.00 0.00 93 1016.4
20260901115003 73 92 0.0 0.0 0.00 0.00 0.00 93 1016.5
20260901114504 73 92 0.0 0.0 0.00 0.00 0.00 92 1016.5
20260901114003 73 92 0.0 0.0 0.00 0.00 0.00 92 1016.6
20260901113003 73 92 0.0 0.0 0.00 0.00 0.00 93 1016.4
20260901112500 73 92 0.0 0.0 0.00 0.00 0.00 92 1016.3
20260901112003 73 92 0.0 0.0 0.00 0.00 0.00 92 1016.3
20260901111503 73 92 0.0 0.0 0.00 0.00 0.00 92 1016.4
20260901111003 73 92 0.0 0.0 0.00 0.00 0.00 92 1016.5
20260901110004 73 92 0.0 0.0 0.00 0.00 0.00 92 1016.3
20260901105500 73 92 0.0 0.0 0.00 0.00 0.00 92 1016.3
20260901105003 73 92 0.0 0.0 0.00 0.00 0.00 93 1016.3
20260901104503 73 92 0.0 0.0 0.00 0.00 0.00 93 1016.1
20260901104003 73 92 0.0 0.0 0.00 0.00 0.00 92 1016.3
20260901103459 73 92 0.0 0.0 0.00 0.00 0.00 92 1016.5
20260901103004 73 92 0.0 0.0 0.00 0.00 0.00 93 1016.5
20260901102500 73 92 0.0 0.0 0.00 0.00 0.00 93 1016.6